DNO229 LGMK-OKKK

Flight info

Callsign DNO229
Flight time 3h 9m
Altitude 37000
Route PIDAX DCT KPC DCT KUMBI L612 BLT DCT TAKSU L550 KARIK B411 DEESA Y415 LOTOK A788 SOROR
Aircraft A319/M-SDE3FGHIRWY/LB1

Departure

Time 2026-05-08 16:38
Airport Mykonos Island National Airport (LGMK)

Arrival

Time 2026-05-08 19:47
Airport Kuwait International Airport (OKKK)
Time Latitude Longitude Altitude Speed Heading
2026-05-08 16:28 37.43483 25.34647 409 ft 0 kts 255°
2026-05-08 16:33 37.43486 25.34664 408 ft 3 kts 255°
2026-05-08 16:33 37.43491 25.34688 407 ft 3 kts 255°
2026-05-08 16:33 37.43492 25.34710 407 ft 3 kts 327°
2026-05-08 16:33 37.43488 25.34714 407 ft 0 kts 345°
2026-05-08 16:35 37.43508 25.34708 404 ft 9 kts 339°
2026-05-08 16:35 37.43581 25.34673 407 ft 12 kts 343°
2026-05-08 16:35 37.43670 25.34698 405 ft 15 kts 20°
2026-05-08 16:35 37.43773 25.34712 406 ft 15 kts 346°
2026-05-08 16:36 37.43873 25.34669 409 ft 15 kts 341°
2026-05-08 16:36 37.43972 25.34627 409 ft 16 kts 338°
2026-05-08 16:36 37.44086 25.34574 406 ft 19 kts 341°
2026-05-08 16:36 37.44211 25.34525 407 ft 19 kts 342°
2026-05-08 16:37 37.44298 25.34497 406 ft 6 kts 251°
2026-05-08 16:37 37.44252 25.34501 404 ft 1 kts 160°
2026-05-08 16:37 37.44250 25.34502 404 ft 3 kts 160°
2026-05-08 16:38 37.43973 25.34622 409 ft 81 kts 161°
2026-05-08 16:38 37.43216 25.34961 408 ft 147 kts 159°
2026-05-08 16:38 37.42211 25.35414 881 ft 154 kts 159°
2026-05-08 16:38 37.41212 25.35900 1574 ft 154 kts 162°
2026-05-08 16:39 37.40204 25.36343 2337 ft 155 kts 164°
2026-05-08 16:39 37.39143 25.36796 2666 ft 171 kts 165°
2026-05-08 16:39 37.37944 25.37306 2891 ft 193 kts 165°
2026-05-08 16:39 37.36633 25.37870 3340 ft 204 kts 165°
2026-05-08 16:40 37.35284 25.38460 4007 ft 207 kts 165°
2026-05-08 16:40 37.33941 25.39191 4649 ft 217 kts 151°
2026-05-08 16:40 37.32686 25.40442 4991 ft 243 kts 144°
2026-05-08 16:40 37.31335 25.41887 5342 ft 267 kts 143°
2026-05-08 16:41 37.29880 25.43467 5901 ft 282 kts 142°
2026-05-08 16:41 37.28374 25.45110 6616 ft 291 kts 143°
2026-05-08 16:41 37.26826 25.46789 7340 ft 297 kts 143°
2026-05-08 16:42 37.23630 25.50241 8791 ft 308 kts 143°
2026-05-08 16:42 37.21969 25.51977 9524 ft 313 kts 146°
2026-05-08 16:42 37.20229 25.53651 10222 ft 318 kts 148°
2026-05-08 16:42 37.18417 25.55317 10488 ft 338 kts 148°
2026-05-08 16:43 37.16416 25.57125 10658 ft 361 kts 148°
2026-05-08 16:43 37.14368 25.58982 11046 ft 373 kts 148°
2026-05-08 16:43 37.12234 25.60940 11668 ft 378 kts 147°
2026-05-08 16:43 37.10142 25.62882 12325 ft 381 kts 147°
2026-05-08 16:44 37.08009 25.64867 12978 ft 384 kts 147°
2026-05-08 16:44 37.05858 25.66869 13624 ft 387 kts 147°
2026-05-08 16:44 37.03693 25.68887 14223 ft 390 kts 146°
2026-05-08 16:44 37.01479 25.70950 14792 ft 393 kts 147°
2026-05-08 16:45 36.99272 25.72997 15349 ft 396 kts 147°
2026-05-08 16:45 36.97048 25.75051 15906 ft 399 kts 147°
2026-05-08 16:45 36.94802 25.77125 16467 ft 403 kts 147°
2026-05-08 16:45 36.92542 25.79214 17012 ft 406 kts 147°
2026-05-08 16:46 36.90265 25.81320 17567 ft 409 kts 147°
2026-05-08 16:46 36.87965 25.83443 18118 ft 413 kts 147°
2026-05-08 16:46 36.85647 25.85580 18624 ft 416 kts 147°
2026-05-08 16:46 36.83309 25.87731 19121 ft 419 kts 147°
2026-05-08 16:47 36.80955 25.89892 19621 ft 421 kts 147°
2026-05-08 16:47 36.78588 25.92065 20107 ft 424 kts 147°
2026-05-08 16:47 36.76201 25.94255 20596 ft 427 kts 147°
2026-05-08 16:47 36.73802 25.96455 21076 ft 430 kts 147°
2026-05-08 16:48 36.71416 25.98644 21539 ft 432 kts 147°
2026-05-08 16:48 36.68987 26.00874 21996 ft 435 kts 147°
2026-05-08 16:48 36.66546 26.03114 22441 ft 437 kts 147°
2026-05-08 16:48 36.64088 26.05365 22876 ft 440 kts 147°
2026-05-08 16:49 36.61614 26.07626 23305 ft 442 kts 147°
2026-05-08 16:49 36.59128 26.09900 23717 ft 445 kts 147°
2026-05-08 16:49 36.56630 26.12181 24050 ft 447 kts 147°
2026-05-08 16:49 36.54113 26.14478 24396 ft 450 kts 147°
2026-05-08 16:50 36.51585 26.16781 24734 ft 452 kts 147°
2026-05-08 16:50 36.49433 26.18741 25012 ft 454 kts 147°
2026-05-08 16:50 36.48897 26.19228 25078 ft 455 kts 147°
2026-05-08 16:50 36.46335 26.21555 25401 ft 457 kts 147°
2026-05-08 16:51 36.43762 26.23890 25721 ft 460 kts 147°
2026-05-08 16:51 36.41174 26.26238 26046 ft 462 kts 148°
2026-05-08 16:51 36.38569 26.28600 26339 ft 465 kts 148°
2026-05-08 16:51 36.35946 26.30976 26653 ft 468 kts 148°
2026-05-08 16:52 36.33309 26.33362 26970 ft 470 kts 148°
2026-05-08 16:52 36.30659 26.35758 27268 ft 473 kts 148°
2026-05-08 16:52 36.27992 26.38171 27530 ft 477 kts 148°
2026-05-08 16:52 36.25304 26.40600 27816 ft 479 kts 149°
2026-05-08 16:53 36.19851 26.45527 28402 ft 484 kts 149°
2026-05-08 16:53 36.17159 26.47956 28682 ft 487 kts 149°
2026-05-08 16:53 36.14414 26.50432 28963 ft 489 kts 149°
2026-05-08 16:54 36.11657 26.52909 29238 ft 491 kts 149°
2026-05-08 16:54 36.08886 26.55395 29509 ft 493 kts 149°
2026-05-08 16:54 36.06097 26.57892 29736 ft 497 kts 150°
2026-05-08 16:54 36.03290 26.60408 29955 ft 500 kts 150°
2026-05-08 16:55 36.00472 26.62936 30186 ft 502 kts 150°
2026-05-08 16:55 35.97642 26.65475 30425 ft 503 kts 150°
2026-05-08 16:55 35.94813 26.68010 30742 ft 502 kts 150°
2026-05-08 16:55 35.91985 26.70541 31096 ft 501 kts 150°
2026-05-08 16:56 35.89170 26.73059 31445 ft 500 kts 150°
2026-05-08 16:56 35.86360 26.75570 31796 ft 498 kts 150°
2026-05-08 16:56 35.83558 26.78073 32144 ft 497 kts 150°
2026-05-08 16:56 35.80762 26.80568 32500 ft 496 kts 150°
2026-05-08 16:57 35.77973 26.83054 32855 ft 494 kts 150°
2026-05-08 16:57 35.75188 26.85527 33205 ft 493 kts 150°
2026-05-08 16:57 35.72406 26.87990 33512 ft 492 kts 150°
2026-05-08 16:57 35.69627 26.90449 33848 ft 491 kts 150°
2026-05-08 16:58 35.66858 26.92901 34195 ft 490 kts 150°
2026-05-08 16:58 35.64090 26.95352 34494 ft 490 kts 150°
2026-05-08 16:58 35.61326 26.97798 34785 ft 489 kts 150°
2026-05-08 16:58 35.58566 27.00242 35066 ft 489 kts 151°
2026-05-08 16:59 35.55809 27.02678 35341 ft 488 kts 151°
2026-05-08 16:59 35.53049 27.05112 35613 ft 488 kts 151°
2026-05-08 16:59 35.50293 27.07544 35875 ft 488 kts 151°
2026-05-08 16:59 35.47540 27.09971 36129 ft 488 kts 151°
2026-05-08 17:00 35.44787 27.12397 36374 ft 487 kts 151°
2026-05-08 17:00 35.42028 27.14825 36548 ft 489 kts 150°
2026-05-08 17:00 35.39286 27.17312 36721 ft 491 kts 149°
2026-05-08 17:00 35.36581 27.19882 36944 ft 492 kts 147°
2026-05-08 17:01 35.33903 27.22502 37104 ft 493 kts 147°
2026-05-08 17:01 35.31238 27.25136 37137 ft 492 kts 147°
2026-05-08 17:01 35.25907 27.30372 37133 ft 490 kts 147°
2026-05-08 17:02 35.20546 27.35523 37136 ft 490 kts 148°
2026-05-08 17:02 35.15166 27.40632 37135 ft 490 kts 148°
2026-05-08 17:03 35.09789 27.45744 37139 ft 490 kts 148°
2026-05-08 17:03 35.04414 27.50864 37139 ft 489 kts 148°
2026-05-08 17:04 34.99053 27.55981 37147 ft 489 kts 148°
2026-05-08 17:04 34.93693 27.61082 37149 ft 488 kts 148°
2026-05-08 17:05 34.88336 27.66164 37151 ft 488 kts 148°
2026-05-08 17:05 34.83881 27.70378 37127 ft 488 kts 148°
2026-05-08 17:06 34.78514 27.75446 37136 ft 488 kts 147°
2026-05-08 17:06 34.73127 27.80530 37145 ft 488 kts 147°
2026-05-08 17:07 34.67797 27.85558 37142 ft 488 kts 148°
2026-05-08 17:07 34.62424 27.90611 37147 ft 488 kts 148°
2026-05-08 17:08 34.57049 27.95656 37152 ft 488 kts 148°
2026-05-08 17:08 34.51673 28.00700 37140 ft 489 kts 147°
2026-05-08 17:09 34.46296 28.05740 37143 ft 489 kts 147°
2026-05-08 17:09 34.40909 28.10782 37135 ft 490 kts 147°
2026-05-08 17:10 34.35512 28.15815 37140 ft 490 kts 147°
2026-05-08 17:10 34.30098 28.20843 37143 ft 490 kts 147°
2026-05-08 17:11 34.24683 28.25872 37134 ft 491 kts 147°
2026-05-08 17:11 34.19268 28.30903 37139 ft 491 kts 147°
2026-05-08 17:12 34.13854 28.35939 37145 ft 492 kts 147°
2026-05-08 17:12 34.08426 28.40970 37143 ft 492 kts 147°
2026-05-08 17:13 34.02982 28.45988 37149 ft 493 kts 147°
2026-05-08 17:13 33.97527 28.51001 37152 ft 493 kts 147°
2026-05-08 17:14 33.92071 28.56020 37149 ft 493 kts 147°
2026-05-08 17:14 33.86623 28.61040 37159 ft 493 kts 147°
2026-05-08 17:15 33.81170 28.66044 37166 ft 493 kts 147°
2026-05-08 17:15 33.75714 28.71045 37165 ft 493 kts 147°
2026-05-08 17:16 33.70332 28.76169 37165 ft 497 kts 140°
2026-05-08 17:16 33.65292 28.81844 37145 ft 497 kts 140°
2026-05-08 17:17 33.60246 28.87503 37168 ft 496 kts 140°
2026-05-08 17:17 33.55210 28.93153 37175 ft 496 kts 140°
2026-05-08 17:18 33.50175 28.98794 37178 ft 495 kts 140°
2026-05-08 17:18 33.45138 29.04419 37178 ft 495 kts 140°
2026-05-08 17:19 33.40100 29.10026 37180 ft 494 kts 140°
2026-05-08 17:19 33.35063 29.15628 37175 ft 494 kts 140°
2026-05-08 17:20 33.30034 29.21226 37165 ft 494 kts 140°
2026-05-08 17:20 33.25004 29.26809 37169 ft 493 kts 140°
2026-05-08 17:21 33.19964 29.32387 37165 ft 494 kts 140°
2026-05-08 17:21 33.14921 29.37953 37165 ft 494 kts 140°
2026-05-08 17:22 33.09873 29.43519 37166 ft 494 kts 140°
2026-05-08 17:22 33.04831 29.49077 37163 ft 494 kts 140°
2026-05-08 17:23 32.99779 29.54636 37145 ft 494 kts 140°
2026-05-08 17:23 32.94731 29.60194 37144 ft 494 kts 140°
2026-05-08 17:24 32.89675 29.65748 37147 ft 495 kts 140°
2026-05-08 17:24 32.84606 29.71292 37150 ft 495 kts 140°
2026-05-08 17:25 32.79572 29.76796 37151 ft 495 kts 140°
2026-05-08 17:25 32.74499 29.82326 37152 ft 495 kts 140°
2026-05-08 17:26 32.69424 29.87857 37148 ft 495 kts 140°
2026-05-08 17:26 32.64343 29.93384 37137 ft 495 kts 140°
2026-05-08 17:27 32.59262 29.98909 37154 ft 495 kts 140°
2026-05-08 17:27 32.54179 30.04411 37152 ft 495 kts 140°
2026-05-08 17:28 32.49096 30.09903 37147 ft 494 kts 140°
2026-05-08 17:28 32.44018 30.15391 37137 ft 494 kts 140°
2026-05-08 17:29 32.38931 30.20876 37133 ft 495 kts 140°
2026-05-08 17:29 32.33840 30.26348 37114 ft 495 kts 140°
2026-05-08 17:30 32.28751 30.31817 37125 ft 494 kts 140°
2026-05-08 17:30 32.23655 30.37276 37138 ft 494 kts 140°
2026-05-08 17:31 32.18557 30.42720 37138 ft 494 kts 140°
2026-05-08 17:31 32.13456 30.48163 37134 ft 495 kts 140°
2026-05-08 17:32 32.08351 30.53615 37133 ft 495 kts 140°
2026-05-08 17:32 32.03249 30.59057 37133 ft 495 kts 140°
2026-05-08 17:33 31.98175 30.64459 37134 ft 495 kts 140°
2026-05-08 17:33 31.93068 30.69888 37128 ft 495 kts 140°
2026-05-08 17:34 31.87951 30.75304 37129 ft 494 kts 140°
2026-05-08 17:34 31.82832 30.80705 37125 ft 494 kts 140°
2026-05-08 17:35 31.77716 30.86116 37124 ft 494 kts 140°
2026-05-08 17:35 31.72601 30.91518 37124 ft 494 kts 140°
2026-05-08 17:36 31.67480 30.96915 37111 ft 494 kts 140°
2026-05-08 17:36 31.62363 31.02304 37119 ft 494 kts 140°
2026-05-08 17:37 31.57239 31.07687 37115 ft 495 kts 140°
2026-05-08 17:37 31.52406 31.13424 37114 ft 497 kts 127°
2026-05-08 17:38 31.48681 31.20241 37113 ft 497 kts 121°
2026-05-08 17:38 31.45044 31.27129 37118 ft 497 kts 122°
2026-05-08 17:39 31.41382 31.34008 37113 ft 498 kts 122°
2026-05-08 17:39 31.37713 31.40894 37113 ft 499 kts 122°
2026-05-08 17:40 31.34051 31.47788 37110 ft 499 kts 122°
2026-05-08 17:40 31.30384 31.54681 37114 ft 499 kts 121°
2026-05-08 17:41 31.26713 31.61564 37106 ft 499 kts 121°
2026-05-08 17:41 31.23034 31.68433 37112 ft 498 kts 121°
2026-05-08 17:42 31.19351 31.75291 37111 ft 498 kts 121°
2026-05-08 17:42 31.15671 31.82148 37115 ft 498 kts 121°
2026-05-08 17:43 31.11994 31.88999 37109 ft 498 kts 121°
2026-05-08 17:43 31.08310 31.95846 37104 ft 498 kts 121°
2026-05-08 17:44 31.04613 32.02682 37100 ft 498 kts 121°
2026-05-08 17:44 31.00919 32.09511 37099 ft 498 kts 121°
2026-05-08 17:45 30.97230 32.16336 37098 ft 498 kts 121°
2026-05-08 17:45 30.93536 32.23152 37097 ft 497 kts 121°
2026-05-08 17:46 30.89839 32.29958 37094 ft 497 kts 121°
2026-05-08 17:46 30.86136 32.36755 37100 ft 497 kts 121°
2026-05-08 17:47 30.82427 32.43551 37094 ft 497 kts 121°
2026-05-08 17:47 30.79323 32.49247 37084 ft 498 kts 121°
2026-05-08 17:48 30.75610 32.56038 37092 ft 498 kts 121°
2026-05-08 17:48 30.71891 32.62821 37103 ft 498 kts 121°
2026-05-08 17:49 30.68169 32.69601 37104 ft 498 kts 121°
2026-05-08 17:49 30.64447 32.76377 37105 ft 498 kts 121°
2026-05-08 17:50 30.60718 32.83147 37101 ft 498 kts 121°
2026-05-08 17:50 30.56994 32.89921 37113 ft 498 kts 121°
2026-05-08 17:51 30.53259 32.96683 37106 ft 498 kts 121°
2026-05-08 17:51 30.49510 33.03441 37108 ft 498 kts 121°
2026-05-08 17:52 30.45755 33.10196 37108 ft 498 kts 121°
2026-05-08 17:53 30.40135 33.20325 37104 ft 499 kts 121°
2026-05-08 17:53 30.36400 33.27039 37098 ft 499 kts 121°
2026-05-08 17:54 30.32632 33.33795 37102 ft 499 kts 121°
2026-05-08 17:54 30.28854 33.40532 37089 ft 499 kts 121°
2026-05-08 17:55 30.25084 33.47271 37091 ft 499 kts 121°
2026-05-08 17:55 30.21321 33.54003 37085 ft 498 kts 121°
2026-05-08 17:56 30.17545 33.60723 37088 ft 498 kts 121°
2026-05-08 17:56 30.13773 33.67435 37089 ft 498 kts 121°
2026-05-08 17:57 30.09989 33.74144 37079 ft 498 kts 121°
2026-05-08 17:57 30.06209 33.80847 37076 ft 499 kts 121°
2026-05-08 17:58 30.02419 33.87554 37081 ft 499 kts 121°
2026-05-08 17:58 29.98626 33.94256 37074 ft 499 kts 121°
2026-05-08 17:59 29.94826 34.00954 37069 ft 499 kts 121°
2026-05-08 17:59 29.91014 34.07654 37069 ft 500 kts 121°
2026-05-08 18:00 29.87197 34.14348 37064 ft 500 kts 121°
2026-05-08 18:00 29.81471 34.24398 37054 ft 500 kts 121°
2026-05-08 18:01 29.77653 34.31089 37061 ft 500 kts 121°
2026-05-08 18:01 29.73830 34.37767 37060 ft 500 kts 121°
2026-05-08 18:02 29.70649 34.43308 37053 ft 499 kts 121°
2026-05-08 18:02 29.66181 34.51103 37052 ft 499 kts 121°
2026-05-08 18:03 29.62338 34.57746 37032 ft 499 kts 124°
2026-05-08 18:03 29.57589 34.63564 37013 ft 501 kts 141°
2026-05-08 18:04 29.52193 34.68629 37014 ft 501 kts 141°
2026-05-08 18:04 29.47252 34.74221 36984 ft 499 kts 124°
2026-05-08 18:05 29.43986 34.81157 36977 ft 492 kts 105°
2026-05-08 18:05 29.42566 34.88743 36961 ft 485 kts 94°
2026-05-08 18:06 29.41926 34.96400 36968 ft 478 kts 82°
2026-05-08 18:06 29.42960 35.03741 36977 ft 465 kts 68°
2026-05-08 18:07 29.44657 35.10910 36976 ft 466 kts 68°
2026-05-08 18:07 29.46337 35.18097 36984 ft 466 kts 68°
2026-05-08 18:08 29.48009 35.25287 37012 ft 467 kts 68°
2026-05-08 18:08 29.49682 35.32489 37018 ft 467 kts 68°
2026-05-08 18:09 29.51356 35.39697 37014 ft 468 kts 68°
2026-05-08 18:09 29.53025 35.46919 37013 ft 468 kts 68°
2026-05-08 18:10 29.54712 35.54139 37018 ft 468 kts 68°
2026-05-08 18:10 29.56434 35.61348 37023 ft 468 kts 67°
2026-05-08 18:11 29.58153 35.68553 37009 ft 468 kts 68°
2026-05-08 18:11 29.59857 35.75766 37021 ft 468 kts 68°
2026-05-08 18:12 29.61509 35.83004 37019 ft 469 kts 70°
2026-05-08 18:12 29.62800 35.90385 37003 ft 473 kts 73°
2026-05-08 18:13 29.63897 35.97837 36993 ft 473 kts 73°
2026-05-08 18:13 29.65039 36.05272 36994 ft 472 kts 72°
2026-05-08 18:14 29.66248 36.12683 36982 ft 471 kts 72°
2026-05-08 18:14 29.67464 36.20091 36984 ft 472 kts 72°
2026-05-08 18:15 29.68656 36.27512 37010 ft 472 kts 72°
2026-05-08 18:15 29.69839 36.34935 37004 ft 472 kts 72°
2026-05-08 18:16 29.71029 36.42352 36996 ft 471 kts 72°
2026-05-08 18:16 29.72235 36.49764 36996 ft 471 kts 72°
2026-05-08 18:17 29.73440 36.57175 37006 ft 471 kts 72°
2026-05-08 18:17 29.74610 36.64593 37003 ft 474 kts 76°
2026-05-08 18:18 29.74467 36.72214 37009 ft 489 kts 95°
2026-05-08 18:18 29.72961 36.79875 37025 ft 491 kts 98°
2026-05-08 18:19 29.71435 36.87534 37040 ft 491 kts 97°
2026-05-08 18:19 29.69917 36.95196 37038 ft 491 kts 97°
2026-05-08 18:20 29.68388 37.02848 37047 ft 491 kts 97°
2026-05-08 18:20 29.66852 37.10500 37042 ft 491 kts 98°
2026-05-08 18:21 29.65312 37.18152 37044 ft 491 kts 98°
2026-05-08 18:21 29.63768 37.25801 37057 ft 491 kts 98°
2026-05-08 18:22 29.62210 37.33449 37056 ft 491 kts 98°
2026-05-08 18:22 29.60659 37.41092 37052 ft 491 kts 98°
2026-05-08 18:23 29.59102 37.48727 37061 ft 491 kts 98°
2026-05-08 18:23 29.57535 37.56356 37058 ft 490 kts 98°
2026-05-08 18:24 29.55972 37.63973 37049 ft 490 kts 98°
2026-05-08 18:24 29.54416 37.71540 37049 ft 490 kts 98°
2026-05-08 18:25 29.52840 37.79154 37051 ft 490 kts 98°
2026-05-08 18:25 29.51264 37.86761 37051 ft 490 kts 98°
2026-05-08 18:26 29.49682 37.94367 37050 ft 490 kts 98°
2026-05-08 18:26 29.48114 38.01970 37056 ft 489 kts 97°
2026-05-08 18:27 29.46948 38.08360 37053 ft 488 kts 96°
2026-05-08 18:27 29.45453 38.17235 37050 ft 488 kts 96°
2026-05-08 18:28 29.44138 38.24874 37055 ft 488 kts 96°
2026-05-08 18:28 29.42772 38.32496 37048 ft 488 kts 97°
2026-05-08 18:29 29.41390 38.40118 37050 ft 488 kts 97°
2026-05-08 18:29 29.40014 38.47738 37039 ft 488 kts 97°
2026-05-08 18:30 29.38638 38.55360 37069 ft 488 kts 97°
2026-05-08 18:30 29.37262 38.62983 37061 ft 488 kts 97°
2026-05-08 18:31 29.36113 38.69309 37063 ft 488 kts 97°
2026-05-08 18:31 29.34724 38.76919 37064 ft 488 kts 97°
2026-05-08 18:32 29.33333 38.84525 37060 ft 488 kts 97°
2026-05-08 18:32 29.31928 38.92125 37073 ft 488 kts 98°
2026-05-08 18:33 29.30384 38.99704 37068 ft 489 kts 99°
2026-05-08 18:33 29.28754 39.07261 37070 ft 489 kts 99°
2026-05-08 18:34 29.27140 39.14823 37077 ft 488 kts 99°
2026-05-08 18:34 29.25546 39.22381 37087 ft 488 kts 99°
2026-05-08 18:35 29.23955 39.29931 37084 ft 487 kts 99°
2026-05-08 18:35 29.22368 39.37471 37091 ft 487 kts 100°
2026-05-08 18:36 29.20773 39.45004 37091 ft 487 kts 100°
2026-05-08 18:36 29.19169 39.52521 37088 ft 486 kts 100°
2026-05-08 18:37 29.17556 39.60034 37098 ft 486 kts 101°
2026-05-08 18:37 29.15959 39.67539 37099 ft 485 kts 100°
2026-05-08 18:38 29.14357 39.75032 37096 ft 485 kts 101°
2026-05-08 18:38 29.12739 39.82516 37098 ft 484 kts 101°
2026-05-08 18:39 29.11119 39.89985 37095 ft 484 kts 101°
2026-05-08 18:39 29.09725 39.97502 37097 ft 482 kts 97°
2026-05-08 18:40 29.08624 40.05060 37098 ft 481 kts 96°
2026-05-08 18:40 29.07527 40.12607 37102 ft 481 kts 97°
2026-05-08 18:41 29.06345 40.20145 37102 ft 482 kts 97°
2026-05-08 18:41 29.05119 40.27677 37113 ft 482 kts 98°
2026-05-08 18:42 29.03895 40.35205 37111 ft 482 kts 98°
2026-05-08 18:42 29.02683 40.42735 37111 ft 482 kts 98°
2026-05-08 18:43 29.01484 40.50208 37109 ft 481 kts 99°
2026-05-08 18:43 29.00266 40.57775 37107 ft 481 kts 99°
2026-05-08 18:44 28.99050 40.65236 37107 ft 481 kts 99°
2026-05-08 18:44 28.97819 40.72740 37101 ft 481 kts 99°
2026-05-08 18:45 28.96586 40.80248 37096 ft 481 kts 99°
2026-05-08 18:45 28.95353 40.87751 37099 ft 481 kts 99°
2026-05-08 18:46 28.94119 40.95254 37096 ft 481 kts 100°
2026-05-08 18:46 28.92876 41.02757 37100 ft 481 kts 100°
2026-05-08 18:47 28.91627 41.10249 37092 ft 481 kts 100°
2026-05-08 18:47 28.90379 41.17741 37106 ft 480 kts 101°
2026-05-08 18:48 28.89135 41.25215 37106 ft 479 kts 101°
2026-05-08 18:48 28.87889 41.32673 37102 ft 478 kts 101°
2026-05-08 18:49 28.86630 41.40120 37095 ft 477 kts 102°
2026-05-08 18:49 28.85371 41.47548 37091 ft 477 kts 102°
2026-05-08 18:50 28.84108 41.54966 37084 ft 476 kts 102°
2026-05-08 18:50 28.82841 41.62381 37083 ft 476 kts 103°
2026-05-08 18:51 28.81583 41.69795 37080 ft 476 kts 103°
2026-05-08 18:51 28.80311 41.77211 37079 ft 476 kts 103°
2026-05-08 18:52 28.79036 41.84626 37062 ft 477 kts 105°
2026-05-08 18:52 28.77757 41.92039 37063 ft 477 kts 105°
2026-05-08 18:53 28.76462 41.99462 37052 ft 477 kts 106°
2026-05-08 18:53 28.75174 42.06890 37058 ft 478 kts 106°
2026-05-08 18:54 28.73882 42.14325 37060 ft 478 kts 106°
2026-05-08 18:54 28.72584 42.21703 37068 ft 479 kts 107°
2026-05-08 18:55 28.70625 42.32855 37067 ft 479 kts 107°
2026-05-08 18:56 28.69319 42.40292 37063 ft 479 kts 107°
2026-05-08 18:56 28.68004 42.47734 37038 ft 479 kts 108°
2026-05-08 18:57 28.66675 42.55179 37034 ft 480 kts 108°
2026-05-08 18:57 28.65344 42.62624 37013 ft 480 kts 109°
2026-05-08 18:58 28.63993 42.70073 37023 ft 480 kts 109°
2026-05-08 18:58 28.62516 42.77481 37029 ft 479 kts 111°
2026-05-08 18:59 28.60966 42.84859 37030 ft 479 kts 111°
2026-05-08 18:59 28.59429 42.92244 37029 ft 480 kts 110°
2026-05-08 19:00 28.58168 42.98386 37035 ft 480 kts 110°
2026-05-08 19:00 28.56403 43.07035 37016 ft 481 kts 111°
2026-05-08 19:01 28.54883 43.14443 37017 ft 481 kts 111°
2026-05-08 19:01 28.53348 43.21858 37024 ft 482 kts 111°
2026-05-08 19:02 28.51821 43.29230 37012 ft 483 kts 112°
2026-05-08 19:02 28.50276 43.36663 37039 ft 483 kts 111°
2026-05-08 19:03 28.48718 43.44152 37013 ft 483 kts 112°
2026-05-08 19:03 28.47162 43.51588 37013 ft 484 kts 112°
2026-05-08 19:04 28.45600 43.59034 37018 ft 485 kts 112°
2026-05-08 19:04 28.44050 43.66420 37002 ft 485 kts 113°
2026-05-08 19:05 28.42477 43.73886 37010 ft 486 kts 113°
2026-05-08 19:05 28.40891 43.81349 37020 ft 487 kts 113°
2026-05-08 19:06 28.39297 43.88824 37002 ft 488 kts 114°
2026-05-08 19:06 28.37730 43.96334 37012 ft 489 kts 113°
2026-05-08 19:07 28.36179 44.03864 36992 ft 490 kts 113°
2026-05-08 19:07 28.34612 44.11417 37028 ft 492 kts 114°
2026-05-08 19:08 28.33024 44.18969 37027 ft 492 kts 114°
2026-05-08 19:08 28.31429 44.26513 37018 ft 492 kts 114°
2026-05-08 19:09 28.29836 44.34056 37023 ft 491 kts 114°
2026-05-08 19:09 28.28241 44.41593 37033 ft 491 kts 114°
2026-05-08 19:10 28.26640 44.49126 37039 ft 491 kts 114°
2026-05-08 19:10 28.25043 44.56649 37039 ft 491 kts 114°
2026-05-08 19:11 28.23444 44.64172 37017 ft 490 kts 115°
2026-05-08 19:11 28.21838 44.71686 37026 ft 490 kts 115°
2026-05-08 19:12 28.20222 44.79194 37033 ft 490 kts 115°
2026-05-08 19:12 28.18605 44.86702 37035 ft 490 kts 115°
2026-05-08 19:13 28.16985 44.94205 37038 ft 490 kts 115°
2026-05-08 19:13 28.15374 45.01710 37019 ft 493 kts 112°
2026-05-08 19:13 28.14925 45.05621 37020 ft 508 kts 102°
2026-05-08 19:14 28.15040 45.09669 37022 ft 522 kts 91°
2026-05-08 19:14 28.16609 45.17809 37028 ft 531 kts 84°
2026-05-08 19:15 28.18298 45.25951 37022 ft 531 kts 84°
2026-05-08 19:15 28.19958 45.34122 37031 ft 532 kts 84°
2026-05-08 19:16 28.21629 45.42298 37006 ft 533 kts 84°
2026-05-08 19:16 28.23039 45.49114 37052 ft 535 kts 84°
2026-05-08 19:17 28.24734 45.57335 37050 ft 535 kts 84°
2026-05-08 19:17 28.26416 45.65559 37044 ft 535 kts 84°
2026-05-08 19:18 28.28085 45.73791 37048 ft 535 kts 84°
2026-05-08 19:18 28.29749 45.82028 37054 ft 536 kts 84°
2026-05-08 19:19 28.31415 45.90267 37052 ft 536 kts 84°
2026-05-08 19:19 28.33079 45.98520 37007 ft 536 kts 84°
2026-05-08 19:20 28.34734 46.06783 37005 ft 537 kts 85°
2026-05-08 19:20 28.36324 46.15058 37008 ft 535 kts 87°
2026-05-08 19:21 28.37566 46.23394 36498 ft 539 kts 90°
2026-05-08 19:21 28.38106 46.27619 35797 ft 542 kts 90°
2026-05-08 19:21 28.38639 46.31855 35105 ft 541 kts 89°
2026-05-08 19:21 28.39194 46.36069 34436 ft 538 kts 89°
2026-05-08 19:22 28.39777 46.40250 33697 ft 534 kts 88°
2026-05-08 19:22 28.40374 46.44390 32944 ft 529 kts 88°
2026-05-08 19:22 28.40977 46.48496 32211 ft 524 kts 88°
2026-05-08 19:22 28.41576 46.52555 31501 ft 518 kts 88°
2026-05-08 19:23 28.42160 46.56559 30810 ft 511 kts 88°
2026-05-08 19:23 28.42727 46.60519 30106 ft 504 kts 87°
2026-05-08 19:23 28.43278 46.64426 29319 ft 497 kts 87°
2026-05-08 19:23 28.43807 46.68225 28557 ft 491 kts 87°
2026-05-08 19:24 28.44334 46.72032 27808 ft 485 kts 86°
2026-05-08 19:24 28.44857 46.75793 27075 ft 479 kts 86°
2026-05-08 19:24 28.45378 46.79513 26364 ft 474 kts 86°
2026-05-08 19:24 28.45892 46.83193 25665 ft 469 kts 86°
2026-05-08 19:25 28.46398 46.86834 24989 ft 464 kts 85°
2026-05-08 19:25 28.46896 46.90445 24321 ft 460 kts 85°
2026-05-08 19:25 28.47389 46.94023 23681 ft 457 kts 85°
2026-05-08 19:25 28.47880 46.97577 22922 ft 454 kts 84°
2026-05-08 19:26 28.48367 47.01103 22166 ft 450 kts 84°
2026-05-08 19:26 28.48850 47.04599 21430 ft 445 kts 83°
2026-05-08 19:26 28.49326 47.08059 20706 ft 441 kts 83°
2026-05-08 19:26 28.49797 47.11485 20005 ft 436 kts 83°
2026-05-08 19:27 28.50260 47.14870 19323 ft 431 kts 82°
2026-05-08 19:27 28.50716 47.18223 18652 ft 426 kts 82°
2026-05-08 19:27 28.51163 47.21524 17943 ft 420 kts 81°
2026-05-08 19:27 28.51603 47.24776 17173 ft 410 kts 81°
2026-05-08 19:28 28.52030 47.27933 16441 ft 399 kts 81°
2026-05-08 19:28 28.52447 47.31006 15723 ft 389 kts 81°
2026-05-08 19:28 28.52853 47.34011 15019 ft 379 kts 81°
2026-05-08 19:28 28.53248 47.36941 14343 ft 371 kts 81°
2026-05-08 19:29 28.53636 47.39817 13649 ft 364 kts 81°
2026-05-08 19:29 28.54016 47.42641 12912 ft 358 kts 81°
2026-05-08 19:29 28.54390 47.45423 12189 ft 353 kts 81°
2026-05-08 19:29 28.54758 47.48157 11478 ft 348 kts 82°
2026-05-08 19:30 28.55122 47.50857 10785 ft 343 kts 82°
2026-05-08 19:30 28.55480 47.53514 10274 ft 334 kts 82°
2026-05-08 19:30 28.55821 47.56048 10118 ft 318 kts 82°
2026-05-08 19:30 28.56149 47.58492 10081 ft 309 kts 82°
2026-05-08 19:31 28.56472 47.60907 10085 ft 308 kts 82°
2026-05-08 19:31 28.56792 47.63316 10087 ft 308 kts 82°
2026-05-08 19:31 28.57096 47.65723 10078 ft 307 kts 85°
2026-05-08 19:31 28.57186 47.68148 10080 ft 307 kts 90°
2026-05-08 19:32 28.57238 47.70572 10079 ft 307 kts 90°
2026-05-08 19:32 28.57295 47.72998 10070 ft 307 kts 89°
2026-05-08 19:32 28.57353 47.75425 10071 ft 307 kts 89°
2026-05-08 19:32 28.57409 47.77847 10071 ft 307 kts 89°
2026-05-08 19:33 28.57463 47.80276 10065 ft 307 kts 90°
2026-05-08 19:33 28.57518 47.82685 10061 ft 300 kts 89°
2026-05-08 19:33 28.57572 47.85004 10063 ft 288 kts 89°
2026-05-08 19:33 28.57622 47.87265 10065 ft 285 kts 89°
2026-05-08 19:34 28.57670 47.89515 10057 ft 285 kts 89°
2026-05-08 19:34 28.57719 47.91767 10057 ft 284 kts 89°
2026-05-08 19:34 28.57769 47.94015 10057 ft 285 kts 89°
2026-05-08 19:34 28.57861 47.96263 10061 ft 284 kts 83°
2026-05-08 19:35 28.58322 47.98442 10052 ft 283 kts 69°
2026-05-08 19:35 28.59196 48.00443 10048 ft 283 kts 56°
2026-05-08 19:35 28.60372 48.02271 9622 ft 290 kts 51°
2026-05-08 19:35 28.61607 48.04112 9134 ft 295 kts 51°
2026-05-08 19:36 28.62844 48.05953 8668 ft 299 kts 51°
2026-05-08 19:36 28.64110 48.07843 8190 ft 302 kts 51°
2026-05-08 19:36 28.65387 48.09756 7741 ft 305 kts 51°
2026-05-08 19:36 28.66669 48.11682 7282 ft 305 kts 51°
2026-05-08 19:37 28.67998 48.13540 6836 ft 300 kts 40°
2026-05-08 19:37 28.69705 48.14827 6394 ft 291 kts 18°
2026-05-08 19:37 28.71641 48.15315 5930 ft 283 kts 358°
2026-05-08 19:37 28.73575 48.15115 5468 ft 277 kts 349°
2026-05-08 19:38 28.75480 48.14823 5013 ft 276 kts 350°
2026-05-08 19:38 28.77376 48.14537 4560 ft 274 kts 352°
2026-05-08 19:38 28.79257 48.14256 4088 ft 271 kts 352°
2026-05-08 19:38 28.81117 48.13979 3638 ft 269 kts 352°
2026-05-08 19:39 28.82962 48.13692 3186 ft 266 kts 349°
2026-05-08 19:39 28.84698 48.13014 2792 ft 261 kts 338°
2026-05-08 19:39 28.86351 48.12243 2530 ft 252 kts 338°
2026-05-08 19:39 28.87949 48.11501 2301 ft 243 kts 338°
2026-05-08 19:40 28.89478 48.10791 2230 ft 231 kts 338°
2026-05-08 19:40 28.90934 48.10114 2233 ft 222 kts 338°
2026-05-08 19:40 28.92359 48.09451 2237 ft 221 kts 338°
2026-05-08 19:40 28.93780 48.08788 2236 ft 221 kts 338°
2026-05-08 19:41 28.95204 48.08124 2236 ft 221 kts 339°
2026-05-08 19:41 28.96624 48.07460 2235 ft 220 kts 338°
2026-05-08 19:41 28.98033 48.06802 2230 ft 218 kts 338°
2026-05-08 19:41 28.99422 48.06152 2226 ft 207 kts 338°
2026-05-08 19:42 29.00755 48.05671 2232 ft 197 kts 345°
2026-05-08 19:42 29.02038 48.05160 2236 ft 192 kts 339°
2026-05-08 19:42 29.03205 48.04585 2154 ft 177 kts 337°
2026-05-08 19:42 29.04294 48.04018 1949 ft 169 kts 336°
2026-05-08 19:43 29.05349 48.03463 1700 ft 166 kts 336°
2026-05-08 19:43 29.06390 48.02914 1454 ft 159 kts 336°
2026-05-08 19:43 29.07332 48.02414 1296 ft 143 kts 336°
2026-05-08 19:43 29.08224 48.01943 1239 ft 139 kts 336°
2026-05-08 19:44 29.09099 48.01479 1237 ft 139 kts 335°
2026-05-08 19:44 29.09971 48.01017 1233 ft 137 kts 337°
2026-05-08 19:44 29.10828 48.00563 1233 ft 135 kts 337°
2026-05-08 19:44 29.11681 48.00111 1235 ft 135 kts 337°
2026-05-08 19:45 29.12532 47.99659 1236 ft 135 kts 337°
2026-05-08 19:45 29.13370 47.99215 1236 ft 135 kts 336°
2026-05-08 19:45 29.14233 47.98757 1142 ft 134 kts 336°
2026-05-08 19:45 29.15076 47.98310 963 ft 134 kts 336°
2026-05-08 19:46 29.15915 47.97848 733 ft 134 kts 337°
2026-05-08 19:46 29.16753 47.97378 674 ft 135 kts 337°
2026-05-08 19:46 29.18469 47.96495 471 ft 135 kts 339°
2026-05-08 19:47 29.19320 47.96056 333 ft 135 kts 339°
2026-05-08 19:47 29.20165 47.95602 225 ft 133 kts 338°
2026-05-08 19:47 29.20858 47.95243 211 ft 73 kts 336°
2026-05-08 19:47 29.21054 47.95165 215 ft 0 kts 19°